QPF
0.00 0.00 0.00 0.00 0.00 0.00 0.00 0.00 0.00 0.00 0.00 0.00 0.00 0.00 0.00 0.00 0.00 0.00 0.00 0.00 0.00 0.00 0.00 0.00 0.00 0.00 0.00 0.00 0.00 0.00 0.00 0.00 0.00 0.00 0.00 0.00 0.00 0.00 0.00 0.00 0.00 0.00 0.00
0.00 0.00 0.00 0.00 0.00 0.00 0.00 0.00 0.00 0.00 0.00 0.00 0.00 0.00 0.00 0.00 0.00 0.00 0.00 0.00 0.00 0.00 0.00 0.00 0.00 0.00 0.00 0.00 0.00 0.00 0.00 0.00 0.00 0.01 0.01 0.01 0.00 0.00 0.00 0.00 0.00 0.00 0.00
0.00 0.00 0.00 0.00 0.00 0.00 0.00 0.00 0.00 0.00 0.00 0.00 0.00 0.00 0.00 0.00 0.00 0.00 0.00 0.00 0.00 0.00 0.00 0.00 0.00 0.00 0.00 0.00 0.00 0.00 0.00 0.01 0.00 0.01 0.02 0.04 0.03 0.01 0.00 0.00 0.00 0.00 0.00
0.00 0.00 0.00 0.00 0.00 0.00 0.00 0.00 0.00 0.00 0.00 0.00 0.00 0.00 0.00 0.00 0.00 0.00 0.00 0.00 0.00 0.00 0.00 0.00 0.00 0.00 0.00 0.00 0.00 0.00 0.00 0.01 0.02 0.01 0.02 0.03 0.03 0.03 0.02 0.00 0.00 0.00 0.00
0.00 0.00 0.00 0.00 0.00 0.00 0.00 0.00 0.00 0.00 0.00 0.00 0.00 0.00 0.00 0.00 0.00 0.00 0.00 0.00 0.00 0.00 0.00 0.00 0.00 0.00 0.00 0.00 0.00 0.00 0.01 0.01 0.02 0.02 0.03 0.02 0.02 0.02 0.03 0.02 0.00 0.00 0.00
0.00 0.00 0.00 0.00 0.00 0.00 0.00 0.00 0.00 0.00 0.00 0.00 0.00 0.00 0.00 0.00 0.00 0.00 0.00 0.00 0.00 0.00 0.00 0.00 0.00 0.00 0.00 0.00 0.00 0.00 0.01 0.01 0.02 0.03 0.03 0.04 0.04 0.03 0.03 0.03 0.01 0.00 0.00
0.00 0.00 0.00 0.00 0.00 0.00 0.00 0.00 0.00 0.00 0.00 0.00 0.00 0.00 0.00 0.00 0.00 0.00 0.00 0.00 0.00 0.00 0.00 0.00 0.00 0.00 0.00 0.00 0.00 0.00 0.01 0.01 0.02 0.03 0.04 0.04 0.05 0.05 0.05 0.05 0.03 0.01 0.00
0.00 0.00 0.00 0.00 0.00 0.00 0.00 0.00 0.00 0.00 0.00 0.00 0.00 0.00 0.00 0.00 0.00 0.00 0.00 0.00 0.00 0.00 0.00 0.00 0.00 0.00 0.00 0.00 0.00 0.01 0.01 0.01 0.02 0.03 0.04 0.05 0.05 0.06 0.08 0.10 0.10 0.07 0.02
0.00 0.00 0.00 0.00 0.00 0.00 0.00 0.00 0.00 0.00 0.00 0.00 0.00 0.00 0.00 0.00 0.00 0.00 0.00 0.00 0.00 0.00 0.00 0.00 0.00 0.00 0.00 0.00 0.00 0.01 0.01 0.01 0.02 0.03 0.04 0.05 0.05 0.07 0.09 0.11 0.15 0.17 0.11
0.00 0.00 0.00 0.00 0.00 0.00 0.00 0.00 0.00 0.00 0.00 0.00 0.00 0.00 0.00 0.00 0.00 0.00 0.00 0.00 0.00 0.00 0.00 0.00 0.00 0.00 0.00 0.00 0.00 0.00 0.00 0.01 0.01 0.02 0.03 0.03 0.04 0.05 0.07 0.09 0.11 0.15 0.15
0.00 0.00 0.00 0.00 0.00 0.00 0.00 0.00 0.00 0.00 0.00 0.00 0.00 0.00 0.00 0.00 0.00 0.00 0.00 0.00 0.00 0.00 0.00 0.00 0.00 0.00 0.00 0.00 0.00 0.00 0.00 0.00 0.00 0.00 0.01 0.01 0.02 0.03 0.04 0.06 0.07 0.08 0.08
0.00 0.00 0.00 0.00 0.00 0.00 0.00 0.00 0.00 0.00 0.00 0.00 0.00 0.00 0.00 0.00 0.00 0.00 0.00 0.00 0.00 0.00 0.00 0.00 0.00 0.00 0.00 0.00 0.00 0.00 0.00 0.00 0.00 0.00 0.00 0.00 0.00 0.01 0.02 0.03 0.03 0.03 0.02
0.00 0.00 0.00 0.00 0.00 0.00 0.00 0.00 0.00 0.00 0.00 0.00 0.00 0.00 0.00 0.00 0.00 0.00 0.00 0.00 0.00 0.00 0.00 0.00 0.00 0.00 0.00 0.00 0.00 0.00 0.00 0.00 0.00 0.00 0.00 0.00 0.00 0.00 0.01 0.02 0.02 0.02 0.01
0.00 0.00 0.00 0.00 0.00 0.00 0.00 0.00 0.00 0.00 0.00 0.00 0.00 0.00 0.00 0.00 0.00 0.00 0.00 0.00 0.00 0.00 0.00 0.00 0.00 0.00 0.00 0.00 0.01 0.02 0.01 0.01 0.01 0.00 0.00 0.00 0.00 0.01 0.02 0.03 0.04 0.02 0.01
0.00 0.00 0.00 0.00 0.00 0.00 0.00 0.00 0.00 0.00 0.00 0.00 0.00 0.00 0.00 0.00 0.00 0.00 0.00 0.00 0.00 0.00 0.00 0.00 0.00 0.00 0.00 0.01 0.05 0.06 0.04 0.02 0.02 0.01 0.01 0.00 0.01 0.01 0.04 0.07 0.06 0.04 0.02
0.00 0.00 0.00 0.00 0.00 0.00 0.00 0.00 0.00 0.00 0.00 0.00 0.00 0.00 0.00 0.00 0.00 0.00 0.00 0.00 0.00 0.00 0.00 0.00 0.00 0.00 0.00 0.00 0.05 0.10 0.07 0.04 0.03 0.02 0.01 0.00 0.00 0.01 0.03 0.06 0.06 0.04 0.03
0.00 0.00 0.00 0.00 0.00 0.00 0.00 0.00 0.00 0.00 0.00 0.00 0.00 0.00 0.00 0.00 0.00 0.00 0.00 0.00 0.00 0.00 0.00 0.00 0.00 0.00 0.00 0.00 0.03 0.09 0.07 0.04 0.03 0.01 0.00 0.00 0.00 0.01 0.04 0.06 0.03 0.01 0.02
0.00 0.00 0.00 0.00 0.00 0.00 0.00 0.00 0.00 0.00 0.00 0.00 0.00 0.00 0.00 0.00 0.00 0.00 0.00 0.00 0.00 0.00 0.00 0.00 0.00 0.00 0.00 0.00 0.03 0.09 0.07 0.03 0.02 0.01 0.00 0.00 0.01 0.02 0.09 0.05 0.01 0.00 0.01
0.00 0.00 0.00 0.00 0.00 0.00 0.00 0.00 0.00 0.00 0.00 0.00 0.00 0.00 0.00 0.00 0.00 0.00 0.00 0.00 0.00 0.00 0.00 0.00 0.00 0.00 0.00 0.00 0.04 0.10 0.07 0.03 0.01 0.00 0.00 0.00 0.01 0.04 0.07 0.02 0.01 0.01 0.02
0.00 0.00 0.00 0.00 0.00 0.00 0.00 0.00 0.00 0.00 0.00 0.00 0.00 0.00 0.00 0.00 0.00 0.00 0.00 0.00 0.00 0.00 0.00 0.00 0.00 0.00 0.00 0.01 0.05 0.10 0.07 0.02 0.00 0.00 0.00 0.00 0.02 0.03 0.04 0.03 0.02 0.05 0.05
0.00 0.00 0.00 0.00 0.00 0.00 0.00 0.00 0.00 0.00 0.00 0.00 0.00 0.00 0.00 0.00 0.00 0.00 0.00 0.00 0.00 0.00 0.00 0.00 0.00 0.00 0.00 0.01 0.04 0.08 0.06 0.02 0.00 0.00 0.00 0.00 0.01 0.02 0.02 0.02 0.05 0.10 0.07
0.00 0.00 0.00 0.00 0.00 0.00 0.00 0.00 0.00 0.00 0.00 0.00 0.00 0.00 0.00 0.00 0.00 0.00 0.00 0.00 0.00 0.00 0.00 0.00 0.00 0.00 0.00 0.02 0.04 0.05 0.03 0.02 0.01 0.00 0.00 0.00 0.00 0.00 0.00 0.01 0.04 0.04 0.03
0.00 0.00 0.00 0.00 0.00 0.00 0.00 0.00 0.00 0.00 0.00 0.00 0.00 0.00 0.00 0.00 0.00 0.00 0.00 0.00 0.00 0.00 0.00 0.00 0.00 0.00 0.00 0.02 0.04 0.03 0.02 0.02 0.01 0.00 0.00 0.00 0.00 0.00 0.00 0.00 0.01 0.01 0.02
0.00 0.00 0.00 0.00 0.00 0.00 0.00 0.00 0.00 0.00 0.00 0.00 0.00 0.00 0.00 0.00 0.00 0.00 0.00 0.00 0.00 0.00 0.00 0.00 0.00 0.00 0.01 0.02 0.04 0.03 0.01 0.01 0.01 0.00 0.00 0.00 0.00 0.00 0.00 0.00 0.00 0.00 0.02
0.00 0.00 0.00 0.00 0.00 0.00 0.00 0.00 0.00 0.00 0.00 0.00 0.00 0.00 0.00 0.00 0.00 0.00 0.00 0.00 0.00 0.00 0.00 0.00 0.00 0.01 0.01 0.02 0.04 0.03 0.01 0.01 0.01 0.00 0.00 0.00 0.00 0.00 0.00 0.00 0.00 0.00 0.01
0.00 0.00 0.00 0.00 0.00 0.00 0.00 0.00 0.00 0.00 0.00 0.00 0.00 0.00 0.00 0.00 0.00 0.00 0.00 0.00 0.00 0.00 0.00 0.00 0.00 0.00 0.01 0.01 0.02 0.02 0.01 0.01 0.01 0.00 0.00 0.00 0.00 0.00 0.00 0.00 0.00 0.00 0.00
MSLP
1023.66 1024.22 1024.92 1025.74 1026.64 1027.57 1028.45 1029.24 1029.87 1030.33 1030.61 1030.72 1030.72 1030.65 1030.55 1030.48 1030.45 1030.48 1030.53 1030.60 1030.63 1030.60 1030.49 1030.29 1030.01 1029.67 1029.28 1028.86 1028.42 1027.98 1027.51 1027.01 1026.46 1025.85 1025.17 1024.41 1023.57 1022.66 1021.69 1020.68 1019.62 1018.55 1017.49
1022.89 1023.50 1024.27 1025.14 1026.09 1027.06 1027.99 1028.82 1029.51 1030.03 1030.38 1030.58 1030.66 1030.65 1030.60 1030.54 1030.49 1030.48 1030.48 1030.48 1030.46 1030.39 1030.27 1030.07 1029.80 1029.47 1029.09 1028.67 1028.22 1027.75 1027.24 1026.70 1026.12 1025.50 1024.82 1024.07 1023.27 1022.40 1021.47 1020.49 1019.46 1018.41 1017.35
1022.15 1022.85 1023.69 1024.64 1025.63 1026.64 1027.59 1028.45 1029.18 1029.76 1030.18 1030.45 1030.60 1030.66 1030.65 1030.60 1030.53 1030.47 1030.40 1030.33 1030.24 1030.13 1029.97 1029.76 1029.49 1029.17 1028.80 1028.38 1027.91 1027.41 1026.88 1026.31 1025.72 1025.09 1024.42 1023.71 1022.95 1022.14 1021.26 1020.32 1019.33 1018.31 1017.26
1021.44 1022.25 1023.19 1024.21 1025.26 1026.29 1027.26 1028.13 1028.87 1029.48 1029.95 1030.28 1030.50 1030.61 1030.64 1030.60 1030.51 1030.40 1030.27 1030.13 1029.98 1029.80 1029.61 1029.37 1029.10 1028.78 1028.41 1027.99 1027.52 1027.00 1026.45 1025.88 1025.28 1024.66 1024.02 1023.35 1022.64 1021.89 1021.07 1020.18 1019.22 1018.22 1017.18
1020.74 1021.69 1022.75 1023.85 1024.95 1026.00 1026.96 1027.82 1028.55 1029.16 1029.65 1030.03 1030.29 1030.44 1030.50 1030.48 1030.39 1030.24 1030.07 1029.86 1029.65 1029.42 1029.19 1028.93 1028.65 1028.33 1027.96 1027.55 1027.08 1026.56 1026.02 1025.44 1024.86 1024.26 1023.65 1023.02 1022.36 1021.65 1020.88 1020.02 1019.10 1018.11 1017.07
1020.06 1021.16 1022.34 1023.53 1024.68 1025.73 1026.68 1027.50 1028.20 1028.79 1029.27 1029.66 1029.95 1030.14 1030.23 1030.23 1030.14 1029.99 1029.78 1029.54 1029.28 1029.02 1028.76 1028.49 1028.20 1027.88 1027.52 1027.11 1026.65 1026.15 1025.61 1025.05 1024.48 1023.91 1023.33 1022.73 1022.11 1021.43 1020.68 1019.84 1018.93 1017.94 1016.90
1019.42 1020.65 1021.95 1023.22 1024.41 1025.46 1026.37 1027.15 1027.79 1028.34 1028.79 1029.17 1029.48 1029.69 1029.82 1029.85 1029.79 1029.64 1029.44 1029.19 1028.92 1028.64 1028.36 1028.08 1027.79 1027.47 1027.12 1026.72 1026.28 1025.79 1025.27 1024.73 1024.18 1023.62 1023.06 1022.48 1021.86 1021.19 1020.44 1019.61 1018.69 1017.70 1016.66
1018.83 1020.18 1021.57 1022.91 1024.12 1025.17 1026.04 1026.76 1027.34 1027.83 1028.24 1028.60 1028.91 1029.14 1029.30 1029.37 1029.35 1029.24 1029.06 1028.83 1028.57 1028.30 1028.02 1027.74 1027.45 1027.13 1026.79 1026.40 1025.96 1025.49 1024.99 1024.46 1023.92 1023.37 1022.81 1022.23 1021.60 1020.92 1020.16 1019.31 1018.39 1017.40 1016.36
1018.30 1019.73 1021.20 1022.58 1023.80 1024.83 1025.67 1026.33 1026.85 1027.29 1027.66 1028.00 1028.29 1028.54 1028.73 1028.84 1028.87 1028.81 1028.68 1028.49 1028.26 1028.00 1027.74 1027.46 1027.17 1026.86 1026.51 1026.12 1025.69 1025.22 1024.72 1024.20 1023.67 1023.12 1022.55 1021.95 1021.30 1020.59 1019.81 1018.95 1018.02 1017.03 1016.01
1017.83 1019.31 1020.80 1022.20 1023.43 1024.44 1025.25 1025.88 1026.36 1026.75 1027.09 1027.40 1027.69 1027.95 1028.16 1028.32 1028.39 1028.38 1028.30 1028.16 1027.96 1027.74 1027.49 1027.21 1026.91 1026.59 1026.23 1025.83 1025.39 1024.92 1024.42 1023.90 1023.36 1022.80 1022.22 1021.60 1020.93 1020.20 1019.40 1018.52 1017.60 1016.63 1015.65
1017.39 1018.87 1020.36 1021.75 1022.97 1023.98 1024.78 1025.39 1025.86 1026.23 1026.56 1026.86 1027.14 1027.41 1027.64 1027.82 1027.93 1027.97 1027.93 1027.82 1027.66 1027.45 1027.21 1026.93 1026.61 1026.26 1025.88 1025.45 1024.99 1024.51 1024.00 1023.47 1022.93 1022.37 1021.78 1021.15 1020.47 1019.73 1018.92 1018.05 1017.14 1016.21 1015.28
1016.93 1018.36 1019.82 1021.19 1022.40 1023.41 1024.23 1024.86 1025.34 1025.74 1026.08 1026.39 1026.68 1026.95 1027.19 1027.37 1027.50 1027.56 1027.54 1027.46 1027.31 1027.11 1026.85 1026.55 1026.20 1025.82 1025.39 1024.93 1024.44 1023.94 1023.42 1022.89 1022.36 1021.80 1021.22 1020.60 1019.92 1019.18 1018.38 1017.53 1016.66 1015.78 1014.92
1016.40 1017.76 1019.15 1020.49 1021.69 1022.72 1023.57 1024.25 1024.80 1025.25 1025.63 1025.97 1026.28 1026.55 1026.79 1026.97 1027.10 1027.15 1027.13 1027.05 1026.89 1026.67 1026.39 1026.05 1025.66 1025.22 1024.75 1024.24 1023.72 1023.19 1022.66 1022.14 1021.62 1021.09 1020.54 1019.94 1019.29 1018.58 1017.80 1016.99 1016.16 1015.34 1014.55
1015.76 1017.02 1018.34 1019.63 1020.82 1021.88 1022.79 1023.56 1024.20 1024.73 1025.18 1025.57 1025.91 1026.19 1026.42 1026.59 1026.70 1026.73 1026.69 1026.58 1026.40 1026.15 1025.83 1025.44 1024.99 1024.50 1023.96 1023.41 1022.85 1022.30 1021.77 1021.26 1020.77 1020.27 1019.76 1019.21 1018.60 1017.93 1017.20 1016.44 1015.65 1014.88 1014.15
1015.03 1016.17 1017.40 1018.63 1019.81 1020.91 1021.90 1022.76 1023.51 1024.15 1024.69 1025.15 1025.52 1025.83 1026.05 1026.20 1026.28 1026.29 1026.22 1026.08 1025.86 1025.57 1025.20 1024.76 1024.25 1023.69 1023.10 1022.50 1021.90 1021.33 1020.80 1020.31 1019.85 1019.40 1018.94 1018.44 1017.89 1017.28 1016.60 1015.87 1015.13 1014.41 1013.73
1014.23 1015.25 1016.37 1017.54 1018.71 1019.84 1020.90 1021.87 1022.73 1023.48 1024.13 1024.66 1025.09 1025.42 1025.64 1025.78 1025.84 1025.81 1025.72 1025.54 1025.29 1024.97 1024.56 1024.07 1023.51 1022.90 1022.26 1021.60 1020.97 1020.38 1019.85 1019.38 1018.95 1018.55 1018.14 1017.70 1017.20 1016.64 1016.00 1015.32 1014.61 1013.92 1013.26
1013.43 1014.33 1015.35 1016.45 1017.59 1018.74 1019.86 1020.91 1021.88 1022.74 1023.47 1024.08 1024.57 1024.92 1025.16 1025.30 1025.34 1025.31 1025.20 1025.01 1024.74 1024.39 1023.96 1023.44 1022.85 1022.19 1021.51 1020.82 1020.16 1019.55 1019.01 1018.54 1018.14 1017.77 1017.41 1017.02 1016.57 1016.05 1015.44 1014.79 1014.10 1013.41 1012.77
1012.72 1013.50 1014.42 1015.44 1016.54 1017.68 1018.83 1019.94 1020.98 1021.92 1022.73 1023.40 1023.93 1024.32 1024.59 1024.74 1024.79 1024.76 1024.65 1024.47 1024.22 1023.88 1023.44 1022.92 1022.31 1021.63 1020.92 1020.20 1019.51 1018.88 1018.34 1017.87 1017.48 1017.13 1016.80 1016.44 1016.02 1015.53 1014.95 1014.31 1013.62 1012.94 1012.28
1012.15 1012.83 1013.64 1014.59 1015.63 1016.73 1017.88 1019.00 1020.08 1021.06 1021.92 1022.63 1023.20 1023.62 1023.90 1024.08 1024.16 1024.16 1024.08 1023.94 1023.72 1023.41 1023.00 1022.49 1021.89 1021.22 1020.50 1019.77 1019.07 1018.42 1017.86 1017.38 1016.99 1016.65 1016.32 1015.98 1015.58 1015.10 1014.53 1013.89 1013.21 1012.51 1011.84
1011.73 1012.32 1013.05 1013.90 1014.87 1015.93 1017.03 1018.14 1019.21 1020.19 1021.06 1021.78 1022.37 1022.81 1023.12 1023.33 1023.44 1023.49 1023.47 1023.38 1023.21 1022.96 1022.61 1022.15 1021.58 1020.93 1020.22 1019.50 1018.79 1018.13 1017.55 1017.07 1016.66 1016.31 1015.98 1015.64 1015.24 1014.77 1014.21 1013.57 1012.88 1012.17 1011.48
1011.41 1011.94 1012.59 1013.37 1014.26 1015.25 1016.29 1017.35 1018.37 1019.32 1020.17 1020.88 1021.47 1021.92 1022.25 1022.49 1022.65 1022.75 1022.80 1022.77 1022.68 1022.50 1022.22 1021.82 1021.31 1020.70 1020.03 1019.32 1018.63 1017.97 1017.39 1016.88 1016.46 1016.09 1015.76 1015.40 1015.01 1014.54 1013.99 1013.35 1012.66 1011.94 1011.23
1011.11 1011.60 1012.20 1012.92 1013.73 1014.64 1015.61 1016.60 1017.56 1018.46 1019.26 1019.95 1020.52 1020.97 1021.33 1021.60 1021.80 1021.96 1022.06 1022.12 1022.10 1021.99 1021.79 1021.46 1021.02 1020.48 1019.86 1019.20 1018.53 1017.89 1017.31 1016.80 1016.36 1015.98 1015.62 1015.26 1014.86 1014.40 1013.85 1013.23 1012.54 1011.82 1011.10
1010.72 1011.20 1011.77 1012.43 1013.19 1014.03 1014.93 1015.84 1016.73 1017.57 1018.33 1018.99 1019.55 1020.00 1020.38 1020.68 1020.92 1021.13 1021.29 1021.40 1021.46 1021.42 1021.29 1021.05 1020.69 1020.22 1019.67 1019.07 1018.44 1017.84 1017.27 1016.77 1016.33 1015.93 1015.56 1015.19 1014.79 1014.33 1013.80 1013.20 1012.53 1011.82 1011.10
1010.17 1010.65 1011.20 1011.83 1012.55 1013.34 1014.17 1015.03 1015.86 1016.66 1017.38 1018.02 1018.57 1019.04 1019.43 1019.76 1020.04 1020.29 1020.50 1020.67 1020.78 1020.81 1020.75 1020.58 1020.30 1019.91 1019.44 1018.92 1018.36 1017.80 1017.27 1016.78 1016.34 1015.94 1015.56 1015.18 1014.78 1014.32 1013.81 1013.23 1012.59 1011.91 1011.21
1009.41 1009.88 1010.43 1011.04 1011.73 1012.49 1013.29 1014.11 1014.92 1015.69 1016.40 1017.04 1017.61 1018.10 1018.52 1018.89 1019.21 1019.50 1019.75 1019.95 1020.11 1020.19 1020.18 1020.08 1019.88 1019.58 1019.20 1018.76 1018.27 1017.78 1017.30 1016.84 1016.41 1016.00 1015.62 1015.22 1014.81 1014.36 1013.86 1013.31 1012.71 1012.07 1011.40
1008.45 1008.92 1009.45 1010.06 1010.74 1011.48 1012.26 1013.07 1013.88 1014.66 1015.39 1016.07 1016.67 1017.20 1017.68 1018.09 1018.46 1018.78 1019.06 1019.30 1019.48 1019.60 1019.64 1019.60 1019.47 1019.25 1018.96 1018.61 1018.21 1017.79 1017.36 1016.94 1016.52 1016.12 1015.72 1015.31 1014.88 1014.43 1013.94 1013.41 1012.85 1012.25 1011.63
Thickness
5631 5620 5608 5594 5580 5566 5552 5540 5529 5518 5508 5497 5486 5474 5462 5450 5437 5422 5404 5384 5362 5340 5318 5298 5282 5266 5251 5237 5223 5209 5197 5185 5174 5169 5168 5168 5164 5166 5174 5186 5202 5224 5246
5634 5624 5610 5594 5580 5565 5551 5537 5524 5512 5500 5489 5477 5465 5453 5440 5426 5410 5390 5369 5346 5324 5303 5285 5269 5253 5238 5224 5208 5193 5180 5171 5160 5150 5147 5147 5148 5146 5150 5157 5175 5196 5214
5638 5626 5611 5595 5579 5564 5550 5536 5519 5505 5493 5481 5468 5455 5443 5429 5414 5396 5375 5354 5331 5310 5291 5274 5257 5242 5226 5211 5196 5180 5167 5159 5152 5140 5129 5123 5124 5128 5132 5137 5153 5172 5194
5642 5630 5614 5596 5579 5563 5546 5530 5513 5498 5486 5473 5459 5444 5430 5416 5401 5383 5364 5342 5320 5298 5280 5264 5248 5232 5217 5201 5186 5171 5157 5147 5143 5138 5129 5120 5112 5111 5121 5129 5139 5155 5178
5642 5631 5616 5597 5579 5560 5541 5525 5508 5493 5479 5465 5451 5436 5421 5406 5390 5373 5353 5332 5310 5289 5272 5256 5240 5224 5209 5194 5178 5163 5151 5141 5134 5130 5127 5123 5118 5112 5110 5120 5133 5147 5166
5643 5631 5614 5594 5574 5554 5536 5519 5502 5488 5473 5458 5443 5429 5413 5397 5380 5362 5342 5322 5302 5283 5265 5249 5233 5217 5202 5188 5173 5159 5147 5138 5132 5127 5124 5121 5119 5118 5115 5118 5126 5140 5158
5641 5626 5608 5590 5569 5549 5532 5514 5498 5484 5469 5453 5437 5422 5406 5390 5372 5354 5334 5315 5295 5277 5260 5244 5228 5213 5198 5183 5168 5155 5143 5135 5129 5124 5123 5122 5121 5121 5121 5123 5128 5138 5153
5638 5623 5606 5587 5567 5547 5529 5511 5495 5480 5464 5448 5431 5416 5400 5383 5366 5348 5328 5308 5289 5272 5256 5241 5225 5210 5195 5180 5165 5151 5140 5132 5126 5122 5120 5121 5122 5123 5125 5127 5131 5139 5152
5636 5620 5603 5585 5566 5546 5528 5510 5493 5477 5460 5443 5426 5410 5394 5378 5360 5342 5323 5304 5286 5269 5253 5238 5223 5209 5194 5178 5162 5149 5138 5130 5124 5120 5118 5117 5119 5122 5125 5129 5133 5138 5149
5635 5618 5601 5583 5565 5546 5527 5508 5491 5475 5458 5440 5423 5407 5390 5374 5357 5339 5320 5301 5283 5266 5251 5237 5222 5208 5193 5177 5161 5148 5138 5129 5123 5119 5116 5114 5116 5120 5124 5129 5134 5140 5146
5635 5618 5600 5582 5563 5544 5525 5506 5489 5472 5454 5437 5420 5403 5387 5370 5354 5336 5318 5299 5282 5265 5250 5236 5222 5208 5193 5177 5162 5149 5139 5131 5125 5119 5115 5113 5114 5117 5122 5127 5134 5139 5146
5635 5616 5598 5579 5560 5541 5522 5505 5488 5470 5453 5436 5418 5401 5384 5368 5351 5334 5316 5298 5280 5264 5250 5236 5223 5208 5194 5179 5166 5154 5144 5135 5128 5123 5117 5114 5115 5116 5121 5126 5132 5139 5146
5630 5612 5595 5577 5559 5540 5522 5505 5488 5470 5452 5434 5416 5399 5382 5366 5350 5333 5315 5297 5280 5265 5250 5237 5224 5210 5197 5184 5171 5160 5151 5143 5135 5128 5121 5118 5117 5118 5122 5127 5134 5141 5148
5626 5610 5593 5576 5559 5541 5524 5506 5489 5471 5453 5434 5416 5398 5382 5365 5348 5331 5314 5297 5281 5266 5252 5239 5226 5214 5201 5189 5179 5169 5161 5153 5144 5136 5130 5125 5122 5123 5126 5131 5137 5143 5149
5623 5608 5592 5576 5559 5541 5525 5508 5490 5472 5453 5434 5415 5398 5381 5364 5347 5329 5313 5297 5282 5267 5254 5241 5229 5217 5205 5196 5188 5180 5171 5162 5154 5146 5139 5134 5132 5133 5134 5138 5141 5146 5150
5624 5609 5593 5577 5561 5544 5527 5509 5491 5472 5453 5434 5416 5398 5380 5363 5346 5329 5314 5299 5284 5270 5256 5244 5232 5221 5212 5205 5199 5191 5181 5172 5164 5156 5148 5143 5140 5138 5140 5142 5146 5150 5152
5626 5610 5595 5580 5565 5548 5529 5510 5492 5472 5453 5434 5416 5398 5380 5363 5347 5331 5316 5302 5287 5273 5260 5248 5236 5227 5219 5213 5207 5200 5190 5181 5173 5165 5158 5153 5148 5145 5144 5146 5148 5149 5154
5628 5613 5597 5581 5565 5547 5529 5510 5490 5472 5453 5435 5417 5399 5381 5364 5348 5332 5318 5304 5290 5277 5265 5254 5243 5234 5226 5220 5214 5207 5196 5188 5180 5173 5166 5160 5156 5154 5155 5153 5152 5152 5156
5629 5615 5598 5581 5563 5546 5528 5509 5490 5472 5453 5436 5419 5401 5383 5366 5350 5335 5321 5308 5295 5282 5270 5259 5249 5239 5231 5225 5220 5213 5202 5193 5186 5179 5174 5169 5164 5163 5164 5160 5158 5159 5162
5624 5610 5594 5578 5561 5544 5526 5507 5490 5473 5457 5441 5423 5405 5387 5370 5354 5339 5326 5313 5299 5286 5274 5264 5252 5243 5235 5229 5225 5218 5208 5198 5191 5185 5180 5175 5173 5172 5171 5166 5164 5165 5168
5614 5602 5588 5574 5559 5542 5524 5507 5492 5477 5462 5444 5426 5408 5391 5374 5359 5344 5331 5317 5303 5290 5277 5266 5255 5246 5238 5233 5227 5222 5213 5205 5197 5191 5185 5181 5181 5180 5177 5174 5170 5172 5172
5602 5592 5580 5568 5553 5538 5522 5508 5495 5482 5464 5446 5429 5411 5395 5379 5364 5348 5333 5320 5306 5292 5279 5268 5258 5249 5241 5235 5230 5225 5218 5212 5201 5195 5191 5188 5188 5186 5183 5180 5179 5178 5176
5592 5584 5571 5559 5547 5535 5522 5510 5497 5482 5465 5447 5430 5413 5397 5382 5367 5351 5336 5323 5310 5295 5283 5271 5262 5253 5245 5237 5232 5227 5221 5215 5207 5200 5198 5196 5193 5191 5187 5186 5184 5182 5180
5584 5574 5562 5553 5544 5533 5521 5510 5497 5482 5466 5449 5431 5415 5400 5385 5370 5356 5342 5327 5313 5299 5286 5274 5265 5255 5247 5241 5235 5230 5223 5218 5211 5206 5201 5199 5196 5194 5193 5190 5188 5186 5186
5577 5567 5559 5552 5543 5532 5520 5508 5496 5481 5465 5449 5434 5418 5403 5389 5374 5360 5346 5333 5320 5306 5291 5279 5268 5259 5251 5245 5242 5235 5229 5223 5217 5212 5205 5202 5200 5199 5197 5196 5194 5193 5193
5569 5561 5555 5548 5540 5529 5517 5506 5495 5481 5466 5451 5436 5421 5406 5391 5377 5362 5349 5338 5326 5313 5300 5287 5274 5264 5257 5251 5244 5238 5232 5228 5223 5215 5209 5205 5203 5201 5201 5200 5199 5198 5198